Hourly Data Report for July 03, 2021

WRIGLEY A
NORTHWEST TERRITORIES
Current Station Operator: NAVCAN

63°12'35.000" N
123°26'12.000" W
149.70 m
2204005
YWY

Download Data

Hourly Data (July 2021)
Hourly Data Report for July 3, 2021
TIME
LST
Temp Definition
°C
Dew Point Definition
°C
Rel Hum Definition
%
Precip. Amount Definition
mm

Wind Dir Definition
10's deg

Wind Spd Definition
km/h
Visibility Definition
km
Stn Press Definition
kPa
Hmdx Definition


Wind Chill Definition


Weather Definition


00:00 17.3 14.1 81 LegendMM 34 1 LegendMM 99.70     LegendNANA
01:00 16.0 13.7 86 LegendMM 17 3 LegendMM 99.71     LegendNANA
02:00 13.8 12.6 93 LegendMM 3 3 LegendMM 99.71     LegendNANA
03:00 13.2 12.2 94 LegendMM 3 5 LegendMM 99.73     LegendNANA
04:00 13.4 11.9 91 LegendMM 35 3 LegendMM 99.74     LegendNANA
05:00 13.8 11.4 85 LegendMM 36 3 LegendMM 99.75     LegendNANA
06:00 14.2 12.7 91 LegendMM 28 2 LegendMM 99.76     LegendNANA
07:00 14.9 13.2 89 LegendMM 13 3 LegendMM 99.77     LegendNANA
08:00 16.3 13.5 83 LegendMM 15 7 LegendMM 99.76     LegendNANA
09:00 18.7 12.4 66 LegendMM 14 12 LegendMM 99.77     LegendNANA
10:00 20.1 12.9 63 LegendMM 15 17 LegendMM 99.75     LegendNANA
11:00 21.8 12.2 54 LegendMM 14 17 LegendMM 99.73     LegendNANA
12:00 23.1 12.2 49 LegendMM 15 18 LegendMM 99.72 25   LegendNANA
13:00 24.1 12.0 46 LegendMM 15 20 LegendMM 99.70 26   LegendNANA
14:00 23.9 12.9 49 LegendMM 13 15 LegendMM 99.68 27   LegendNANA
15:00 25.6 11.2 40 LegendMM 14 25 LegendMM 99.63 27   LegendNANA
16:00 26.2 10.1 36 LegendMM 14 25 LegendMM 99.58 28   LegendNANA
17:00 27.1 10.2 34 LegendMM 14 19 LegendMM 99.54 28   LegendNANA
18:00 26.6 10.5 36 LegendMM 15 23 LegendMM 99.52 28   LegendNANA
19:00 25.9 9.8 36 LegendMM 14 18 LegendMM 99.53 27   LegendNANA
20:00 25.4 10.9 40 LegendMM 15 13 LegendMM 99.56 27   LegendNANA
21:00 24.6 11.6 43 LegendMM 15 14 LegendMM 99.56 27   LegendNANA
22:00 23.6 12.1 48 LegendMM 14 12 LegendMM 99.59 26   LegendNANA
23:00 22.6 12.0 51 LegendMM 13 11 LegendMM 99.64 25   LegendNANA

Notes on Data Quality.

Legend

  • E = Estimated
  • M = Missing
  • NA = Not Available*
  • [empty] = Indicates an unobserved value
Date modified: